Weather History for KMFE - May, 2013

Change the Weather History Date:

Monday, May 6, 2013

  Actual Average Record
Temperature  
Mean Temperature 75 °F 80 °F  
Max Temperature 88 °F 90 °F 99 °F (2009)
Min Temperature 61 °F 70 °F 50 °F (1944)
Degree Days  
Heating Degree Days 0 0  
Month to date heating degree days 0 0  
Since 1 July heating degree days 318 579  
Cooling Degree Days 10 15  
Month to date cooling degree days 54 87  
Year to date cooling degree days 844 818  
Growing Degree Days 24 (Base 50)    
Moisture  
Dew Point 59 °F    
Average Humidity 64    
Maximum Humidity 93    
Minimum Humidity 34    
Precipitation  
Precipitation 0.00 in 0.07 in 3.01 in (1987)
Month to date precipitation 0.00 0.41  
Year to date precipitation 2.32 4.94  
Sea Level Pressure  
Sea Level Pressure 30.02 in    
Wind  
Wind Speed 11 mph (ESE)    
Max Wind Speed 22 mph    
Max Gust Speed 26 mph    
Visibility 10 miles    
Events      
T = Trace of Precipitation, MM = Missing Value Source: NWS Daily Summary

Daily Weather History Graph

Daily Weather History Graph

Search for Another Location

Airport or City:

Trip Planner

Search our weather history database for the weather conditions in past years. The results will help you decide how hot, cold, wet, or windy it might be!

Date:

Astronomy

May. 06, 2013 Rise Set
Actual Time 6:51 AM CDT 8:07 PM CDT
Civil Twilight 6:27 AM CDT 8:32 PM CDT
Nautical Twilight 5:58 AM CDT 9:01 PM CDT
Astronomical Twilight 5:27 AM CDT 9:31 PM CDT
Moon 4:36 AM CDT 5:23 PM CDT
Length of Visible Light 14h 05m
Length of Day
13h 15m
Waning Crescent, 11% of the Moon is Illuminated
May 6
Waning Crescent
May 9
New
May 17
First Quarter
May 24
Full
May 31
Last Quarter

Hourly Weather History & Observations

Time (CDT) Temp. Heat Index Dew Point Humidity Pressure Visibility Wind Dir Wind Speed Gust Speed Precip Events Conditions
12:53 AM 64.0 °F - 57.9 °F 80% 30.07 in 10.0 mi SE 6.9 mph - N/A   Clear
1:53 AM 64.0 °F - 57.9 °F 80% 30.05 in 10.0 mi SE 5.8 mph - N/A   Clear
2:53 AM 63.0 °F - 59.0 °F 87% 30.04 in 10.0 mi ESE 6.9 mph - N/A   Clear
3:53 AM 63.0 °F - 59.0 °F 87% 30.03 in 10.0 mi ESE 4.6 mph - N/A   Clear
4:53 AM 63.0 °F - 59.0 °F 87% 30.02 in 10.0 mi ESE 8.1 mph - N/A   Clear
5:53 AM 63.0 °F - 60.1 °F 90% 30.02 in 10.0 mi ESE 6.9 mph - N/A   Partly Cloudy
6:09 AM 62.6 °F - 60.8 °F 94% 30.03 in 10.0 mi SE 6.9 mph - N/A   Mostly Cloudy
6:53 AM 62.1 °F - 60.1 °F 93% 30.03 in 10.0 mi ESE 8.1 mph - N/A   Mostly Cloudy
7:00 AM 62.6 °F - 60.8 °F 94% 30.03 in 10.0 mi ESE 8.1 mph - N/A   Scattered Clouds
7:17 AM 62.6 °F - 60.8 °F 94% 30.04 in 10.0 mi SE 5.8 mph - N/A   Mostly Cloudy
7:45 AM 64.4 °F - 60.8 °F 88% 30.05 in 10.0 mi ESE 6.9 mph - N/A   Scattered Clouds
7:53 AM 64.9 °F - 62.1 °F 90% 30.05 in 10.0 mi ESE 9.2 mph - N/A   Partly Cloudy
8:53 AM 70.0 °F - 62.1 °F 76% 30.08 in 10.0 mi ESE 9.2 mph - N/A   Clear
9:53 AM 75.0 °F - 63.0 °F 66% 30.08 in 10.0 mi SE 12.7 mph - N/A   Clear
10:53 AM 78.1 °F - 63.0 °F 60% 30.07 in 10.0 mi ESE 11.5 mph - N/A   Clear
11:53 AM 80.1 °F 81.2 °F 62.1 °F 54% 30.06 in 10.0 mi ESE 13.8 mph 23.0 mph N/A   Partly Cloudy
12:53 PM 81.0 °F 81.0 °F 57.0 °F 44% 30.04 in 10.0 mi SE 12.7 mph 20.7 mph N/A   Clear
1:53 PM 84.0 °F 83.0 °F 55.9 °F 38% 30.01 in 10.0 mi SE 15.0 mph 25.3 mph N/A   Clear
2:53 PM 86.0 °F 84.7 °F 55.9 °F 36% 29.98 in 10.0 mi ESE 17.3 mph - N/A   Clear
3:53 PM 87.1 °F 85.3 °F 55.0 °F 33% 29.94 in 10.0 mi ESE 19.6 mph 26.5 mph N/A   Clear
4:53 PM 84.9 °F 83.7 °F 55.9 °F 37% 29.93 in 10.0 mi East 15.0 mph 24.2 mph N/A   Clear
5:53 PM 82.9 °F 81.9 °F 54.0 °F 37% 29.94 in 10.0 mi SE 16.1 mph - N/A   Clear
6:53 PM 81.0 °F 80.4 °F 53.1 °F 38% 29.94 in 10.0 mi ESE 17.3 mph - N/A   Clear
7:53 PM 78.1 °F - 53.1 °F 42% 29.96 in 10.0 mi ESE 13.8 mph 23.0 mph N/A   Clear
8:53 PM 75.0 °F - 55.0 °F 50% 30.00 in 10.0 mi ESE 10.4 mph - N/A   Clear
9:53 PM 73.0 °F - 57.9 °F 59% 30.03 in 10.0 mi ESE 9.2 mph - N/A   Clear
10:53 PM 71.1 °F - 60.1 °F 68% 30.03 in 10.0 mi ESE 10.4 mph - N/A   Clear
11:53 PM 69.1 °F - 60.1 °F 73% 30.03 in 10.0 mi East 6.9 mph - N/A   Clear